| time (UTC) | temp F | wind direction | speed knots | gust knots | rain 1hr in | rain 24hr in | rain mn in | humidity % | barometer mb |
| 20260507003050 | 70 | 0 | 0.0 | 1.7 | 0.00 | 0.00 | 0.00 | 79 | 1012.4 |
| 20260507001601 | 70 | 229 | 0.0 | 2.6 | 0.00 | 0.00 | 0.00 | 76 | 1012.5 |
| 20260507000056 | 70 | 214 | 0.0 | 4.3 | 0.00 | 0.00 | 0.00 | 75 | 1012.3 |
| 20260506234607 | 71 | 0 | 0.0 | 2.6 | 0.00 | 0.00 | 0.00 | 74 | 1012.2 |
| 20260506233051 | 71 | 213 | 0.0 | 2.6 | 0.00 | 0.00 | 0.00 | 74 | 1012.2 |
| 20260506231553 | 71 | 0 | 0.0 | 7.0 | 0.00 | 0.00 | 0.00 | 73 | 1012.2 |
| 20260506230103 | 71 | 0 | 0.0 | 7.8 | 0.00 | 0.00 | 0.00 | 73 | 1012.6 |
| 20260506224552 | 71 | 219 | 0.0 | 8.7 | 0.00 | 0.00 | 0.00 | 72 | 1012.6 |
| 20260506223049 | 71 | 0 | 0.0 | 7.0 | 0.00 | 0.00 | 0.00 | 72 | 1012.9 |
| 20260506221555 | 71 | 211 | 0.9 | 8.7 | 0.00 | 0.00 | 0.00 | 71 | 1012.9 |
| 20260506220051 | 71 | 194 | 3.5 | 13.0 | 0.00 | 0.00 | 0.00 | 71 | 1012.7 |
| 20260506214551 | 72 | 198 | 0.9 | 7.8 | 0.00 | 0.00 | 0.00 | 70 | 1012.6 |
| 20260506213055 | 72 | 205 | 0.9 | 7.8 | 0.00 | 0.00 | 0.00 | 71 | 1012.0 |
| 20260506211552 | 71 | 188 | 1.7 | 8.7 | 0.00 | 0.00 | 0.00 | 71 | 1012.0 |
| 20260506210051 | 71 | 171 | 1.7 | 9.6 | 0.00 | 0.00 | 0.00 | 71 | 1012.4 |
| 20260506204551 | 72 | 219 | 0.9 | 6.1 | 0.00 | 0.00 | 0.00 | 70 | 1012.5 |
| 20260506203043 | 71 | 231 | 1.7 | 14.8 | 0.00 | 0.00 | 0.00 | 72 | 1012.8 |
| 20260506201542 | 70 | 263 | 2.6 | 12.2 | 0.00 | 0.00 | 0.00 | 73 | 1012.8 |
| 20260506200042 | 70 | 229 | 2.6 | 12.2 | 0.00 | 0.00 | 0.00 | 74 | 1012.4 |
| 20260506194549 | 70 | 227 | 1.7 | 13.0 | 0.00 | 0.00 | 0.00 | 72 | 1012.5 |
| 20260506193055 | 68 | 217 | 4.3 | 10.4 | 0.00 | 0.00 | 0.00 | 74 | 1012.6 |
| 20260506191559 | 67 | 112 | 1.7 | 10.4 | 0.00 | 0.00 | 0.00 | 76 | 1012.7 |
| 20260506190043 | 68 | 228 | 1.7 | 10.4 | 0.00 | 0.00 | 0.00 | 75 | 1013.2 |
| 20260506184551 | 68 | 225 | 3.5 | 7.8 | 0.00 | 0.00 | 0.00 | 77 | 1013.1 |
| 20260506183100 | 67 | 0 | 1.7 | 7.0 | 0.00 | 0.00 | 0.00 | 78 | 1012.6 |
| 20260506181602 | 67 | 186 | 1.7 | 7.8 | 0.00 | 0.00 | 0.00 | 77 | 1013.7 |
| 20260506180049 | 67 | 221 | 1.7 | 7.0 | 0.00 | 0.00 | 0.00 | 75 | 1014.3 |
| 20260506174548 | 68 | 0 | 0.9 | 8.7 | 0.00 | 0.00 | 0.00 | 73 | 1014.9 |
| 20260506173110 | 69 | 0 | 2.6 | 9.6 | 0.00 | 0.00 | 0.00 | 68 | 1015.2 |
| 20260506171546 | 69 | 0 | 0.0 | 5.2 | 0.00 | 0.00 | 0.00 | 68 | 1014.9 |
| 20260506170104 | 69 | 233 | 0.9 | 7.0 | 0.00 | 0.00 | 0.00 | 70 | 1014.8 |
| 20260506164552 | 68 | 242 | 0.9 | 5.2 | 0.00 | 0.00 | 0.00 | 70 | 1014.7 |
| 20260506163057 | 68 | 225 | 0.0 | 5.2 | 0.00 | 0.00 | 0.00 | 69 | 1015.0 |
| 20260506161547 | 68 | 174 | 0.9 | 4.3 | 0.00 | 0.00 | 0.00 | 69 | 1014.9 |
| 20260506160050 | 67 | 0 | 1.7 | 5.2 | 0.00 | 0.00 | 0.00 | 69 | 1015.0 |
| 20260506154608 | 67 | 141 | 0.0 | 8.7 | 0.00 | 0.00 | 0.00 | 70 | 1014.2 |
| 20260506153052 | 66 | 159 | 0.0 | 7.8 | 0.00 | 0.00 | 0.00 | 70 | 1014.2 |
| 20260506151552 | 66 | 175 | 0.0 | 6.1 | 0.00 | 0.00 | 0.00 | 70 | 1014.5 |
| 20260506150047 | 66 | 209 | 1.7 | 8.7 | 0.00 | 0.00 | 0.00 | 69 | 1014.5 |
| 20260506144554 | 65 | 209 | 1.7 | 10.4 | 0.00 | 0.00 | 0.00 | 70 | 1014.6 |
| 20260506143052 | 65 | 211 | 2.6 | 10.4 | 0.00 | 0.00 | 0.00 | 69 | 1014.6 |
| 20260506141551 | 65 | 231 | 1.7 | 9.6 | 0.00 | 0.00 | 0.00 | 69 | 1014.2 |
| 20260506140054 | 65 | 243 | 2.6 | 10.4 | 0.00 | 0.00 | 0.00 | 68 | 1014.3 |
| 20260506134554 | 65 | 217 | 1.7 | 7.8 | 0.00 | 0.00 | 0.00 | 68 | 1014.1 |
| 20260506133102 | 65 | 215 | 0.9 | 7.0 | 0.00 | 0.00 | 0.00 | 68 | 1014.4 |
| 20260506131544 | 64 | 215 | 1.7 | 9.6 | 0.00 | 0.00 | 0.00 | 69 | 1013.9 |
| 20260506130044 | 63 | 232 | 1.7 | 13.0 | 0.00 | 0.00 | 0.00 | 70 | 1014.2 |
| 20260506124554 | 63 | 241 | 1.7 | 9.6 | 0.00 | 0.00 | 0.00 | 70 | 1014.4 |
| 20260506123053 | 63 | 226 | 3.5 | 13.0 | 0.00 | 0.00 | 0.00 | 70 | 1014.6 |
| 20260506121553 | 63 | 200 | 2.6 | 13.9 | 0.00 | 0.00 | 0.00 | 71 | 1014.6 |
| 20260506120057 | 62 | 227 | 1.7 | 13.0 | 0.00 | 0.00 | 0.00 | 72 | 1014.5 |
| 20260506114558 | 62 | 0 | 1.7 | 8.7 | 0.00 | 0.00 | 0.00 | 72 | 1014.5 |
| 20260506113051 | 62 | 198 | 0.9 | 7.8 | 0.00 | 0.00 | 0.00 | 72 | 1014.1 |
| 20260506111546 | 62 | 0 | 0.9 | 7.8 | 0.00 | 0.00 | 0.00 | 73 | 1014.2 |
| 20260506110054 | 61 | 215 | 0.9 | 9.6 | 0.00 | 0.00 | 0.00 | 73 | 1013.9 |
| 20260506104610 | 61 | 250 | 0.9 | 5.2 | 0.00 | 0.00 | 0.00 | 72 | 1013.6 |
| 20260506103053 | 62 | 196 | 1.7 | 7.8 | 0.00 | 0.00 | 0.00 | 71 | 1013.6 |
| 20260506101549 | 62 | 0 | 1.7 | 7.0 | 0.00 | 0.00 | 0.00 | 71 | 1013.7 |
| 20260506100046 | 62 | 0 | 2.6 | 8.7 | 0.00 | 0.00 | 0.00 | 71 | 1013.5 |
| 20260506094549 | 62 | 0 | 0.9 | 5.2 | 0.00 | 0.00 | 0.00 | 70 | 1013.6 |
| 20260506093050 | 63 | 0 | 0.9 | 7.8 | 0.00 | 0.00 | 0.00 | 70 | 1013.7 |
| 20260506091550 | 63 | 234 | 0.9 | 11.3 | 0.00 | 0.00 | 0.00 | 69 | 1014.0 |
| 20260506090048 | 63 | 234 | 0.9 | 6.1 | 0.00 | 0.00 | 0.00 | 69 | 1014.1 |
| 20260506084544 | 63 | 212 | 1.7 | 7.0 | 0.00 | 0.00 | 0.00 | 69 | 1014.1 |
| 20260506083047 | 63 | 241 | 0.9 | 10.4 | 0.00 | 0.00 | 0.00 | 68 | 1013.9 |
| 20260506081557 | 63 | 205 | 2.6 | 10.4 | 0.00 | 0.00 | 0.00 | 68 | 1014.1 |
| 20260506073048 | 63 | 244 | 2.6 | 10.4 | 0.00 | 0.00 | 0.00 | 68 | 1013.9 |
| 20260506071606 | 63 | 0 | 1.7 | 12.2 | 0.00 | 0.00 | 0.00 | 69 | 1013.9 |
| 20260506061546 | 63 | 257 | 0.9 | 4.3 | 0.00 | 0.00 | 0.00 | 66 | 1014.6 |
| 20260506044605 | 65 | 105 | 1.7 | 7.8 | 0.00 | 0.00 | 0.00 | 59 | 1014.9 |
| 20260506043052 | 66 | 173 | 1.7 | 7.8 | 0.00 | 0.00 | 0.00 | 57 | 1014.9 |
| 20260506041553 | 66 | 0 | 0.9 | 9.6 | 0.00 | 0.00 | 0.00 | 55 | 1014.9 |
| 20260506040053 | 67 | 94 | 0.9 | 5.2 | 0.00 | 0.00 | 0.00 | 53 | 1014.7 |
| 20260506034547 | 67 | 199 | 2.6 | 10.4 | 0.00 | 0.00 | 0.00 | 51 | 1014.5 |
| 20260506033048 | 68 | 153 | 2.6 | 10.4 | 0.00 | 0.00 | 0.00 | 50 | 1014.7 |
| 20260506031555 | 69 | 157 | 0.9 | 8.7 | 0.00 | 0.00 | 0.00 | 49 | 1014.4 |
| 20260506030110 | 69 | 157 | 0.0 | 3.5 | 0.00 | 0.00 | 0.00 | 48 | 1014.6 |
| 20260506024549 | 69 | 0 | 0.0 | 6.1 | 0.00 | 0.00 | 0.00 | 48 | 1014.7 |
| 20260506023046 | 70 | 0 | 0.0 | 4.3 | 0.00 | 0.00 | 0.00 | 47 | 1014.9 |
| 20260506021556 | 70 | 67 | 0.0 | 6.1 | 0.00 | 0.00 | 0.00 | 46 | 1014.9 |
| 20260506020050 | 71 | 246 | 0.9 | 5.2 | 0.00 | 0.00 | 0.00 | 46 | 1014.9 |
| 20260506014550 | 71 | 163 | 0.9 | 6.1 | 0.00 | 0.00 | 0.00 | 45 | 1014.7 |
| 20260506013050 | 71 | 0 | 0.0 | 4.3 | 0.00 | 0.00 | 0.00 | 45 | 1014.6 |
| 20260506011555 | 72 | 246 | 0.0 | 2.6 | 0.00 | 0.00 | 0.00 | 44 | 1014.5 |
| 20260506010056 | 72 | 0 | 0.0 | 5.2 | 0.00 | 0.00 | 0.00 | 43 | 1014.3 |
| 20260506004551 | 73 | 186 | 0.9 | 4.3 | 0.00 | 0.00 | 0.00 | 43 | 1014.2 |